Chesterfield, MO

11:14 PM CST on February 07, 2016 (GMT -0600)
Spirit Of Saint Louis

Weather History for KSUS - March, 2013

Change the Weather History Date:

Thursday, March 7, 2013

  Actual Average (KSTL) Record (KSTL)
Temperature  
Mean Temperature 34 °F 43 °F  
Max Temperature 48 °F 52 °F 85 °F (1974)
Min Temperature 19 °F 34 °F 2 °F (1943)
Degree Days  
Heating Degree Days 32 22  
Month to date heating degree days 163  
Since 1 July heating degree days 3761  
Cooling Degree Days 0 0  
Month to date cooling degree days 0  
Year to date cooling degree days 0  
Moisture  
Dew Point 23 °F    
Average Humidity 67    
Maximum Humidity 89    
Minimum Humidity 39    
Precipitation  
Precipitation 0.00 in 0.09 in 1.80 in (1978)
Month to date precipitation 0.62  
Year to date precipitation 5.26  
Snow  
Snow 0.00 in 0.20 in 6.80 in (1978)
Month to date snowfall 0.8  
Since 1 July snowfall 15.8  
Snow Depth -    
Sea Level Pressure  
Sea Level Pressure 30.38 in    
Wind  
Wind Speed 2 mph (ESE)    
Max Wind Speed 9 mph    
Max Gust Speed -    
Visibility 9 miles    
Events      
T = Trace of Precipitation, MM = Missing Value Source: NWS Daily Summary

Daily Weather History Graph

Daily Weather History Graph

Search for Another Location

Airport or City:

Trip Planner

Search our weather history database for the weather conditions in past years. The results will help you decide how hot, cold, wet, or windy it might be!

Date:

Astronomy

Mar. 07, 2013 Rise Set
Actual Time 6:25 AM CST 6:01 PM CST
Civil Twilight 5:59 AM CST 6:28 PM CST
Nautical Twilight 5:28 AM CST 6:59 PM CST
Astronomical Twilight 4:57 AM CST 7:30 PM CST
Moon 3:23 AM CST (3/7) 1:52 PM CST (3/7)
Length of Visible Light 12h 29m
Length of Day
11h 36m
Waning Crescent, 20% of the Moon is Illuminated
Mar 7
Waning Crescent
Mar 11
New
Mar 19
First Quarter
Mar 27
Full
Apr 2
Last Quarter

Hourly Weather History & Observations

Time (CST) Temp. Windchill Dew Point Humidity Pressure Visibility Wind Dir Wind Speed Gust Speed Precip Events Conditions
12:54 AM 21.9 °F - 19.0 °F 89% 30.38 in 10.0 mi Calm Calm - N/A   Clear
1:54 AM 21.0 °F - 18.0 °F 88% 30.40 in 10.0 mi Calm Calm - N/A   Clear
2:54 AM 21.0 °F - 18.0 °F 88% 30.39 in 9.0 mi Calm Calm - N/A   Clear
3:54 AM 23.0 °F - 19.0 °F 85% 30.40 in 9.0 mi Calm Calm - N/A   Clear
4:54 AM 21.9 °F - 18.0 °F 85% 30.40 in 8.0 mi Calm Calm - N/A   Clear
5:54 AM 21.0 °F - 18.0 °F 88% 30.40 in 6.0 mi Calm Calm - N/A   Scattered Clouds
6:54 AM 19.9 °F - 16.0 °F 85% 30.42 in 7.0 mi Calm Calm - N/A   Partly Cloudy
7:54 AM 27.0 °F - 23.0 °F 85% 30.44 in 6.0 mi Calm Calm - N/A   Clear
8:54 AM 30.9 °F - 24.1 °F 76% 30.44 in 9.0 mi Calm Calm - N/A   Clear
9:54 AM 35.1 °F 30.1 °F 24.1 °F 64% 30.44 in 10.0 mi ESE 5.8 mph - N/A   Partly Cloudy
10:54 AM 37.0 °F - 24.1 °F 59% 30.43 in 10.0 mi Calm Calm - N/A   Clear
11:54 AM 41.0 °F 38.0 °F 25.0 °F 53% 30.40 in 10.0 mi Variable 4.6 mph - N/A   Clear
12:54 PM 44.1 °F 41.5 °F 25.0 °F 47% 30.38 in 10.0 mi Variable 4.6 mph - N/A   Clear
1:54 PM 46.9 °F - 26.1 °F 44% 30.35 in 10.0 mi East 9.2 mph - N/A   Scattered Clouds
2:54 PM 48.0 °F - 26.1 °F 42% 30.33 in 10.0 mi Variable 4.6 mph - N/A   Scattered Clouds
3:54 PM 48.0 °F - 24.1 °F 39% 30.33 in 10.0 mi ESE 3.5 mph - N/A   Partly Cloudy
4:54 PM 46.9 °F - 24.1 °F 41% 30.32 in 10.0 mi SE 5.8 mph - N/A   Partly Cloudy
5:54 PM 44.1 °F 40.1 °F 26.1 °F 49% 30.33 in 10.0 mi ESE 6.9 mph - N/A   Partly Cloudy
6:54 PM 41.0 °F 36.4 °F 26.1 °F 55% 30.34 in 10.0 mi East 6.9 mph - N/A   Clear
7:54 PM 39.0 °F 34.0 °F 28.0 °F 65% 30.34 in 10.0 mi East 6.9 mph - N/A   Clear
8:54 PM 36.0 °F 30.3 °F 28.0 °F 73% 30.35 in 10.0 mi East 6.9 mph - N/A   Clear
9:54 PM 36.0 °F 31.1 °F 27.0 °F 70% 30.35 in 10.0 mi East 5.8 mph - N/A   Clear
10:54 PM 35.1 °F 31.0 °F 27.0 °F 72% 30.37 in 10.0 mi East 4.6 mph - N/A   Clear
11:54 PM 34.0 °F 29.8 °F 27.0 °F 75% 30.38 in 10.0 mi ESE 4.6 mph - N/A   Clear